Cincinnati, OH

1:58 PM EDT on October 17, 2017 (GMT -0400)
Cincinnati Municipal-Lunken

Weather History for KLUK - July, 2013

Change the Weather History Date:

Friday, July 19, 2013

  Actual Average Record
Temperature  
Mean Temperature 80 °F -  
Max Temperature 90 °F 87 °F 96 °F (1977)
Min Temperature 73 °F 68 °F 56 °F (1984)
Cooling Degree Days 16    
Growing Degree Days 30 (Base 50)    
Moisture  
Dew Point 74 °F    
Average Humidity 89    
Maximum Humidity 100    
Minimum Humidity 62    
Precipitation  
Precipitation 0.07 in - - ()
Sea Level Pressure  
Sea Level Pressure 30.01 in    
Wind  
Wind Speed 2 mph (SW)    
Max Wind Speed 15 mph    
Max Gust Speed 22 mph    
Visibility 4 miles    
Events Rain , Thunderstorm    
Averages and records for this station are not official NWS values.
T = Trace of Precipitation, MM = Missing Value Source: NWS Daily Summary

Daily Weather History Graph

Daily Weather History Graph

Search for Another Location

Airport or City:

Trip Planner

Search our weather history database for the weather conditions in past years. The results will help you decide how hot, cold, wet, or windy it might be!

Date:

Astronomy

Jul. 19, 2013 Rise Set
Actual Time 6:27 AM EDT 9:00 PM EDT
Civil Twilight 5:56 AM EDT 9:31 PM EDT
Nautical Twilight 5:17 AM EDT 10:09 PM EDT
Astronomical Twilight 4:34 AM EDT 10:52 PM EDT
Moon 6:01 PM EDT (7/19) 3:07 AM EDT (7/19)
Length of Visible Light 15h 34m
Length of Day
14h 32m
Waxing Gibbous, 86% of the Moon is Illuminated
Jul 19
Waxing Gibbous
Jul 22
Full
Jul 29
Last Quarter
Aug 6
New
Aug 14
First Quarter

Hourly Weather History & Observations

Time (EDT) Temp. Heat Index Dew Point Humidity Pressure Visibility Wind Dir Wind Speed Gust Speed Precip Events Conditions
12:53 AM 78.1 °F - 75.0 °F 90% 30.04 in 6.0 mi Calm Calm - N/A   Clear
1:53 AM 77.0 °F - 75.0 °F 94% 30.04 in 5.0 mi Calm Calm - N/A   Clear
2:51 AM 75.2 °F - 75.2 °F 100% 30.05 in 2.5 mi SW 3.5 mph - N/A   Clear
2:53 AM 73.9 °F - 73.9 °F 100% 30.04 in 2.0 mi SW 3.5 mph - N/A   Clear
3:08 AM 75.2 °F - 75.2 °F 100% 30.05 in 3.0 mi WSW 3.5 mph - N/A   Clear
3:32 AM 75.2 °F - 75.2 °F 100% 30.04 in 2.5 mi South 3.5 mph - N/A   Clear
3:53 AM 75.0 °F - 75.0 °F 100% 30.02 in 1.5 mi Calm Calm - N/A   Clear
4:18 AM 75.2 °F - 75.2 °F 100% 30.03 in 3.0 mi Calm Calm - N/A   Clear
4:33 AM 73.4 °F - 73.4 °F 100% 30.04 in 2.0 mi Calm Calm - N/A   Clear
4:40 AM 73.4 °F - 73.4 °F 100% 30.03 in 1.2 mi Calm Calm - N/A   Clear
4:53 AM 73.9 °F - 73.9 °F 100% 30.02 in 1.8 mi Calm Calm - N/A   Clear
5:15 AM 75.2 °F - 75.2 °F 100% 30.03 in 2.5 mi Calm Calm - N/A   Clear
5:38 AM 73.4 °F - 73.4 °F 100% 30.03 in 1.5 mi WSW 3.5 mph - N/A   Clear
5:53 AM 75.0 °F - 73.9 °F 96% 30.02 in 2.5 mi Calm Calm - N/A   Clear
6:04 AM 73.4 °F - 73.4 °F 100% 30.04 in 1.8 mi Calm Calm - N/A   Clear
6:18 AM 73.4 °F - 73.4 °F 100% 30.04 in 2.0 mi Calm Calm - N/A   Clear
6:27 AM 73.4 °F - 73.4 °F 100% 30.04 in 0.8 mi Calm Calm - N/A   Mist
6:38 AM 73.4 °F - 73.4 °F 100% 30.04 in 1.0 mi Calm Calm - N/A   Clear
6:48 AM 73.4 °F - 73.4 °F 100% 30.04 in 0.8 mi Calm Calm - N/A   Clear
6:53 AM 73.9 °F - 73.9 °F 100% 30.03 in 3.0 mi Calm Calm - N/A   Clear
7:00 AM 73.4 °F - 73.4 °F 100% 30.04 in 1.2 mi Calm Calm - N/A   Clear
7:42 AM 75.2 °F - 75.2 °F 100% 30.04 in 3.0 mi Calm Calm - N/A   Clear
7:53 AM 77.0 °F - 75.9 °F 96% 30.03 in 3.0 mi Calm Calm - N/A   Clear
8:53 AM 81.0 °F 87.3 °F 75.9 °F 85% 30.03 in 5.0 mi South 5.8 mph - N/A   Haze
9:53 AM 84.0 °F 91.2 °F 73.9 °F 72% 30.03 in 7.0 mi WSW 8.1 mph - N/A   Clear
10:06 AM 84.2 °F 92.3 °F 75.2 °F 74% 30.05 in 6.0 mi WSW 6.9 mph - N/A   Haze
10:53 AM 84.9 °F 92.1 °F 73.9 °F 69% 30.03 in 7.0 mi WSW 9.2 mph - N/A   Clear
11:53 AM 86.0 °F 95.1 °F 75.0 °F 70% 30.03 in 7.0 mi Variable 3.5 mph - N/A   Clear
12:53 PM 88.0 °F 96.5 °F 73.9 °F 63% 30.01 in 8.0 mi WSW 5.8 mph - N/A   Scattered Clouds
1:53 PM 88.0 °F 97.5 °F 75.0 °F 65% 29.99 in 7.0 mi SW 6.9 mph - 0.00 in Rain Light Rain
2:18 PM 87.8 °F 95.6 °F 73.4 °F 62% 29.99 in 8.0 mi WSW 5.8 mph - 0.00 in Thunderstorm Thunderstorm
2:53 PM 78.1 °F - 72.0 °F 81% 29.99 in 2.5 mi WSW 15.0 mph 21.9 mph 0.03 in Rain , Thunderstorm Heavy Thunderstorms and Rain
2:59 PM 75.2 °F - 69.8 °F 83% 30.00 in 3.0 mi South 15.0 mph - 0.04 in Rain , Thunderstorm Heavy Thunderstorms and Rain
3:36 PM 78.8 °F - 71.6 °F 78% 29.97 in 10.0 mi Calm Calm - 0.04 in   Partly Cloudy
3:53 PM 82.0 °F 87.9 °F 73.9 °F 76% 29.96 in 10.0 mi Calm Calm - 0.04 in   Clear
4:53 PM 82.0 °F 89.4 °F 75.9 °F 82% 29.94 in 7.0 mi SSW 5.8 mph - N/A   Clear
5:53 PM 84.0 °F 89.0 °F 71.1 °F 65% 29.92 in 10.0 mi South 4.6 mph - N/A   Clear
6:53 PM 84.0 °F 90.2 °F 73.0 °F 69% 29.90 in 9.0 mi South 5.8 mph - N/A   Clear
7:53 PM 82.0 °F 87.9 °F 73.9 °F 76% 29.91 in 10.0 mi South 5.8 mph - N/A   Clear
8:53 PM 79.0 °F - 75.0 °F 88% 29.92 in 6.0 mi South 5.8 mph - N/A   Clear
9:53 PM 78.1 °F - 75.0 °F 90% 29.92 in 6.0 mi SSW 8.1 mph - N/A   Clear
10:53 PM 77.0 °F - 75.0 °F 94% 29.93 in 5.0 mi South 6.9 mph - N/A   Clear
11:53 PM 77.0 °F - 73.9 °F 90% 29.92 in 5.0 mi SW 6.9 mph - N/A   Clear